Location: Amsterdam
(30.7274°N, 84.4357°W)
Time: 03:39:13
(UTC+00:00)

Tiros 1 - Pass Details

Date: 22 February 2026
Orbit: 618 x 649 km, 48.4° (Epoch: 7 March)

Event Time Altitude Azimuth Distance (km) Brightness Sun altitude
Rises 12:52:49 0° 264° (W) 2,923 9.9 7.8°
Reaches altitude 10° 12:55:34 10° 279° (W) 2,010 9.1 8.3°
Maximum altitude 12:59:13 23° 331° (NNW) 1,354 8.5 9.1°
Drops below altitude 10° 13:02:52 10° 24° (NNE) 1,998 9.8 9.8°
Sets 13:05:36 0° 39° (NE) 2,901 10.8 10.4°
